Temp
81 96 99 94 80 81 78 80 88 85 86 92 95 92 91 94 89 82 96 97 101 99 93 88 80 80 80 80 80 80 80 80 80 80 79 79 79 79 79 79 80 80 81 81 81 81 81 81 81
95 94 95 92 76 73 78 87 82 87 90 94 95 94 92 89 95 92 94 94 98 96 92 92 80 80 80 80 79 79 80 80 79 79 79 79 79 79 79 79 80 81 81 81 81 81 81 81 81
90 93 87 82 77 73 78 84 87 87 92 92 90 96 94 90 94 95 97 96 98 94 93 91 80 80 80 80 79 79 79 79 79 79 79 79 79 79 79 79 80 80 81 81 81 81 81 81 80
90 90 88 75 74 81 83 84 86 87 92 94 93 88 96 94 94 97 97 98 95 95 96 82 79 79 79 79 79 79 79 79 79 79 79 79 79 78 78 79 79 80 81 81 81 81 80 80 80
91 89 76 73 75 82 80 85 87 86 88 91 92 88 91 93 94 96 96 97 96 96 96 89 79 79 79 79 79 79 79 78 79 79 79 79 78 78 78 79 79 80 81 81 81 80 79 80 80
82 85 73 71 76 84 85 86 86 84 88 91 91 90 92 94 93 96 98 99 100 98 96 92 80 79 79 79 79 78 78 78 78 78 79 78 78 78 78 78 79 80 80 80 80 79 79 79 79
78 77 73 76 78 80 81 88 86 87 87 89 94 86 93 94 95 98 98 100 101 100 98 94 91 85 78 78 78 78 78 78 78 77 78 78 78 78 78 78 78 79 79 79 79 79 78 78 78
83 80 73 77 75 76 85 85 90 89 87 97 94 87 88 91 94 97 98 100 100 100 100 98 94 93 91 89 78 78 78 77 77 77 77 77 78 78 78 77 78 78 78 78 78 78 78 78 78
84 71 70 74 74 77 85 81 90 92 87 92 92 91 95 94 95 95 94 96 98 98 98 99 96 94 94 96 87 78 78 78 77 79 77 78 90 88 86 84 78 78 78 78 78 78 78 78 78
76 71 73 81 80 78 84 83 85 85 85 87 90 92 92 94 94 93 92 93 94 95 97 99 93 94 95 97 91 90 90 90 89 89 86 90 91 91 92 86 78 78 78 78 78 78 78 78 94
76 71 79 75 79 81 80 82 85 82 80 87 86 90 92 92 93 94 95 96 95 95 96 98 91 91 93 94 93 93 93 92 91 89 89 89 91 90 91 92 90 88 81 90 86 88 89 92 94
69 75 78 78 80 78 77 82 80 82 84 92 91 91 91 90 92 93 94 96 96 95 95 94 92 89 89 95 93 94 94 93 92 91 88 89 89 89 89 92 93 90 93 91 92 94 91 91 91
70 76 77 79 80 79 80 77 78 80 86 90 91 91 89 91 90 91 91 94 95 93 93 93 91 89 88 89 92 93 93 92 93 93 90 91 91 89 90 90 91 92 93 93 91 91 91 90 90
75 76 76 77 78 78 75 77 79 81 85 84 85 86 89 90 91 90 92 92 92 92 92 93 91 87 89 88 89 89 90 93 92 92 92 89 90 89 90 89 89 90 92 92 91 90 89 90 90
73 68 74 76 77 75 78 70 72 82 84 80 84 86 89 90 92 92 92 91 92 92 91 90 90 89 86 86 87 89 91 92 92 92 89 89 88 87 85 89 89 91 91 88 87 87 89 89 91
70 70 66 77 78 77 74 65 78 83 82 79 83 85 86 86 91 95 92 93 92 91 92 89 90 90 85 84 86 88 91 91 92 92 92 89 88 88 85 86 89 90 90 90 89 89 89 89 90
68 64 66 69 78 75 72 68 79 84 82 79 82 85 85 85 89 92 94 93 91 90 88 88 87 87 85 85 86 85 87 89 91 91 91 90 88 88 83 85 87 84 86 88 86 85 84 84 85
63 63 66 65 73 73 71 70 78 82 80 80 82 84 85 86 87 92 93 92 90 88 87 86 88 83 82 84 83 86 85 86 87 85 88 85 86 84 84 85 83 82 82 83 81 79 85 82 85
67 64 63 70 75 71 70 72 76 80 80 79 81 83 85 86 90 91 93 94 90 89 83 80 83 83 84 82 84 82 82 86 84 85 85 85 84 84 82 87 88 86 85 85 84 85 82 83 85
66 63 64 70 73 70 71 70 76 79 79 80 81 84 85 87 89 87 82 83 85 81 84 83 82 80 80 82 81 82 84 83 87 87 85 85 85 87 87 86 87 86 87 83 82 80 82 84 86
64 63 64 65 70 73 70 67 72 77 80 81 83 86 87 86 87 87 87 85 88 82 81 79 79 80 81 82 79 76 78 80 81 80 82 85 85 85 84 84 83 84 83 85 82 81 79 80 83
59 70 67 65 64 60 71 59 69 74 75 78 81 83 85 87 87 87 86 84 82 82 83 80 80 78 80 80 80 76 81 81 84 83 87 84 83 83 84 82 83 82 85 82 83 83 80 80 78
63 71 68 67 65 64 66 61 68 73 71 76 78 82 86 88 88 82 82 81 82 82 81 79 78 76 75 77 80 83 83 84 85 85 78 79 80 80 81 80 80 79 82 81 80 78 78 81 80
72 67 67 68 66 55 63 63 66 70 71 74 78 79 79 81 83 83 80 78 79 82 81 78 74 72 73 75 76 75 73 75 79 80 79 82 83 83 81 80 78 77 77 77 78 78 77 77 78
68 62 53 51 53 52 65 61 65 71 75 77 78 78 79 80 81 81 80 79 77 79 79 78 76 73 73 73 71 71 71 71 73 73 78 74 79 80 79 76 74 77 76 76 76 76 75 76 77
63 62 55 45 49 55 63 56 67 75 75 77 78 79 78 78 80 80 80 80 80 78 77 75 75 73 74 73 72 71 70 75 74 75 73 74 76 76 75 73 72 72 73 73 73 74 76 76 76
64 58 68 58 59 55 60 65 70 73 72 74 75 75 75 77 78 78 78 79 78 75 74 75 74 73 72 72 72 71 71 70 69 69 69 73 72 74 73 72 69 69 69 69 69 71 71 72 73
67 71 55 59 44 45 56 59 63 67 69 73 72 74 75 76 75 75 75 74 74 74 73 72 71 71 71 71 72 73 70 70 70 69 68 67 68 68 67 67 67 67 68 67 66 67 68 68 70
62 61 62 61 58 47 47 53 71 69 72 72 74 75 74 75 75 75 74 73 74 74 74 71 73 71 72 71 71 70 70 69 69 68 68 67 67 66 66 66 66 66 66 66 65 64 65 65 65
68 64 63 53 50 57 55 53 69 70 73 75 75 75 76 77 76 75 74 74 74 73 73 73 71 71 72 71 70 69 68 68 67 67 66 66 65 66 66 65 65 66 66 66 65 64 64 63 62
MSLP
1012.46 1011.16 1010.47 1009.45 1008.06 1005.96 1003.81 1003.16 1003.34 1002.84 1002.80 1003.21 1003.31 1002.89 1002.62 1002.29 1002.08 1002.78 1004.99 1005.54 1005.62 1006.46 1007.97 1009.00 1009.61 1010.12 1010.45 1010.89 1011.21 1011.43 1011.76 1012.20 1012.59 1012.95 1013.39 1013.76 1013.97 1014.10 1014.20 1014.51 1014.74 1014.87 1015.04 1015.21 1015.44 1015.59 1015.66 1015.82 1015.99
1011.21 1010.91 1009.96 1008.25 1006.88 1004.28 1003.16 1003.02 1003.34 1003.08 1003.54 1003.66 1003.16 1002.68 1002.30 1002.06 1003.19 1004.18 1004.98 1006.17 1006.30 1007.04 1008.00 1008.66 1009.71 1010.24 1010.64 1011.09 1011.47 1011.63 1012.00 1012.40 1012.81 1013.21 1013.52 1013.84 1014.18 1014.31 1014.46 1014.73 1014.96 1015.07 1015.29 1015.46 1015.61 1015.77 1015.85 1015.99 1016.08
1011.41 1010.65 1008.85 1007.32 1005.76 1003.98 1002.81 1003.19 1003.34 1003.80 1003.80 1003.44 1003.19 1002.85 1002.74 1002.68 1003.76 1004.27 1005.21 1006.07 1006.57 1007.38 1007.92 1008.75 1009.79 1010.26 1010.69 1011.19 1011.69 1012.01 1012.31 1012.64 1013.02 1013.36 1013.66 1013.97 1014.17 1014.39 1014.65 1014.94 1015.14 1015.25 1015.42 1015.54 1015.70 1015.87 1016.03 1016.19 1016.31
1010.52 1009.89 1008.91 1006.88 1004.51 1004.10 1003.62 1003.99 1004.31 1003.84 1003.51 1003.41 1003.32 1002.92 1002.99 1004.23 1004.19 1004.77 1005.73 1006.26 1006.88 1007.58 1008.02 1009.38 1009.94 1010.33 1010.71 1011.14 1011.56 1012.14 1012.57 1012.92 1013.16 1013.49 1013.78 1014.03 1014.30 1014.57 1014.84 1015.06 1015.33 1015.53 1015.66 1015.78 1015.95 1016.13 1016.25 1016.33 1016.44
1010.04 1008.18 1006.97 1005.65 1004.55 1004.13 1005.03 1004.78 1004.74 1004.22 1003.83 1003.28 1003.27 1002.75 1002.98 1004.47 1005.07 1005.38 1006.08 1006.36 1006.81 1007.35 1007.87 1009.26 1009.97 1010.41 1010.77 1011.20 1011.71 1012.07 1012.54 1013.08 1013.31 1013.55 1013.85 1014.14 1014.43 1014.71 1015.02 1015.23 1015.41 1015.58 1015.73 1015.87 1016.08 1016.30 1016.45 1016.52 1016.64
1008.92 1007.68 1005.85 1004.45 1003.95 1003.82 1004.33 1005.09 1004.74 1004.64 1004.23 1003.46 1003.11 1002.97 1003.04 1004.71 1005.07 1005.50 1006.10 1006.33 1006.74 1007.25 1007.90 1009.01 1010.16 1010.52 1011.04 1011.43 1011.76 1012.18 1012.67 1012.95 1013.27 1013.62 1013.94 1014.28 1014.60 1014.82 1015.05 1015.28 1015.45 1015.61 1015.78 1015.97 1016.18 1016.42 1016.58 1016.67 1016.74
1008.06 1007.02 1005.30 1004.39 1003.49 1003.36 1004.52 1005.25 1004.35 1004.22 1003.91 1003.47 1003.27 1003.07 1002.92 1004.22 1005.05 1005.42 1005.97 1006.27 1006.65 1007.30 1007.85 1008.90 1009.81 1010.65 1011.24 1011.68 1012.01 1012.22 1012.67 1013.10 1013.45 1013.76 1014.12 1014.48 1014.78 1015.02 1015.22 1015.44 1015.63 1015.78 1015.95 1016.15 1016.30 1016.45 1016.59 1016.68 1016.74
1008.13 1006.85 1005.35 1004.40 1003.76 1003.59 1004.29 1004.97 1004.60 1004.09 1003.85 1003.62 1004.10 1002.96 1002.95 1004.33 1005.14 1005.47 1005.95 1006.12 1006.56 1007.16 1007.61 1008.29 1009.16 1010.13 1010.87 1011.59 1012.44 1012.66 1013.02 1013.29 1013.60 1014.02 1014.30 1014.60 1014.89 1015.13 1015.34 1015.57 1015.72 1015.87 1016.01 1016.17 1016.30 1016.38 1016.53 1016.68 1016.76
1008.83 1007.19 1004.98 1004.32 1004.45 1004.47 1004.77 1005.08 1004.57 1004.52 1004.70 1004.05 1004.00 1004.21 1004.26 1004.77 1005.26 1005.41 1005.84 1006.24 1006.43 1006.90 1007.50 1008.12 1008.79 1009.60 1010.16 1010.61 1012.01 1012.97 1013.43 1013.73 1014.00 1014.21 1014.58 1014.86 1014.38 1014.74 1015.01 1015.05 1015.43 1015.80 1016.02 1016.15 1016.24 1016.33 1016.43 1016.49 1016.42
1008.21 1006.65 1005.30 1005.06 1005.08 1005.32 1005.03 1005.15 1004.73 1004.55 1004.24 1003.98 1003.95 1004.39 1004.82 1004.84 1004.91 1004.93 1005.43 1005.78 1006.25 1006.76 1007.33 1007.89 1008.92 1009.38 1009.72 1010.05 1011.07 1012.01 1012.53 1013.01 1013.37 1013.58 1014.01 1013.92 1013.76 1013.98 1014.06 1014.48 1015.39 1015.74 1015.89 1015.93 1015.95 1016.00 1016.08 1016.12 1014.99
1007.48 1006.34 1005.65 1006.41 1006.54 1006.29 1005.71 1005.16 1005.43 1004.92 1004.27 1004.18 1004.11 1003.97 1004.59 1004.80 1004.66 1004.40 1004.82 1005.35 1005.96 1006.78 1007.23 1007.78 1009.01 1009.50 1009.76 1009.98 1010.60 1011.15 1011.57 1012.14 1012.71 1013.02 1013.41 1013.54 1013.60 1013.89 1014.14 1014.01 1014.55 1015.00 1015.34 1014.97 1015.13 1015.12 1015.13 1014.58 1014.35
1007.46 1007.13 1006.48 1006.44 1006.47 1006.42 1005.80 1005.60 1005.21 1005.25 1004.67 1004.27 1004.65 1004.85 1004.95 1004.92 1004.61 1004.42 1004.41 1004.86 1005.59 1006.45 1007.09 1007.99 1008.99 1009.75 1010.07 1009.90 1010.53 1010.63 1011.03 1011.61 1011.98 1012.42 1013.01 1013.07 1013.43 1013.50 1013.55 1013.39 1013.52 1014.09 1013.90 1014.02 1014.10 1013.93 1014.20 1014.38 1014.42
1007.39 1006.40 1006.55 1006.72 1006.45 1006.19 1005.89 1005.46 1005.43 1005.30 1005.42 1005.20 1005.01 1004.94 1005.08 1004.90 1004.95 1005.09 1005.00 1005.22 1005.73 1006.35 1006.95 1007.67 1008.58 1009.38 1009.97 1010.15 1010.25 1010.46 1010.87 1011.35 1011.61 1012.00 1012.62 1012.75 1012.79 1013.04 1013.18 1013.27 1013.36 1013.35 1013.40 1013.45 1013.76 1013.69 1013.86 1013.93 1013.92
1006.59 1006.55 1006.28 1006.41 1006.11 1006.04 1005.94 1005.38 1005.32 1005.10 1005.68 1005.46 1005.41 1005.22 1005.02 1004.87 1004.76 1005.00 1005.15 1005.16 1005.94 1006.34 1006.91 1007.60 1008.35 1009.15 1009.64 1010.00 1010.18 1010.59 1010.86 1010.92 1011.54 1011.73 1012.09 1012.69 1012.57 1012.67 1012.91 1013.16 1013.18 1013.25 1013.23 1013.23 1013.33 1013.44 1013.64 1013.51 1013.45
1007.02 1006.59 1005.84 1005.50 1005.52 1005.48 1005.72 1005.33 1004.56 1004.59 1004.57 1005.09 1004.60 1004.66 1004.41 1004.44 1004.41 1004.45 1004.75 1005.27 1006.09 1006.47 1006.85 1007.50 1008.12 1008.96 1009.53 1010.00 1010.35 1010.49 1010.54 1010.89 1011.12 1011.43 1012.13 1012.23 1012.50 1012.66 1013.14 1012.83 1012.86 1012.75 1012.83 1013.27 1013.41 1013.38 1013.23 1013.14 1013.00
1006.35 1005.87 1004.29 1003.21 1004.02 1004.69 1005.47 1003.71 1003.20 1003.47 1003.72 1004.12 1003.78 1003.91 1004.11 1004.36 1004.11 1003.82 1004.57 1005.01 1005.87 1006.37 1006.74 1007.28 1007.59 1008.18 1009.31 1009.84 1010.12 1010.31 1010.25 1010.65 1010.73 1010.95 1011.33 1011.79 1012.07 1012.37 1012.78 1012.85 1012.41 1012.31 1012.50 1012.47 1012.69 1012.74 1012.58 1012.40 1012.23
1005.25 1003.52 1003.32 1002.86 1003.24 1003.75 1004.42 1002.95 1002.05 1002.45 1002.69 1003.07 1003.01 1002.96 1003.28 1003.63 1003.67 1003.48 1004.15 1005.00 1005.62 1006.17 1007.16 1006.93 1007.50 1007.93 1008.96 1009.64 1009.93 1010.32 1010.39 1010.68 1010.48 1010.77 1010.91 1011.19 1011.68 1011.94 1012.49 1012.65 1012.23 1012.56 1012.54 1012.38 1012.50 1012.58 1012.60 1012.42 1012.20
1003.12 1003.45 1003.23 1002.85 1002.74 1003.32 1003.05 1002.58 1001.60 1001.61 1001.98 1002.08 1002.19 1002.10 1002.47 1002.56 1002.88 1003.39 1003.74 1004.81 1006.06 1006.54 1006.66 1007.04 1007.48 1008.32 1009.22 1009.54 1010.00 1010.15 1010.35 1010.53 1010.66 1010.93 1010.91 1011.44 1011.71 1012.00 1012.16 1012.15 1012.41 1012.66 1012.64 1012.64 1012.82 1012.93 1012.45 1012.48 1011.95
1003.62 1003.47 1003.14 1002.75 1002.66 1002.70 1002.15 1001.52 1000.79 1000.82 1001.21 1001.26 1001.27 1001.19 1001.72 1002.01 1002.53 1003.36 1003.66 1004.43 1005.38 1006.12 1006.97 1007.75 1007.86 1008.07 1008.87 1009.09 1009.65 1009.85 1009.92 1010.05 1010.62 1010.80 1011.01 1011.22 1011.39 1011.60 1011.89 1011.83 1011.73 1012.14 1012.20 1012.16 1012.31 1012.31 1012.22 1012.07 1011.71
1004.04 1003.62 1003.09 1002.67 1002.44 1002.49 1001.47 1000.78 1000.21 1000.21 1000.48 1000.85 1000.68 1000.50 1000.98 1001.15 1001.74 1002.91 1004.20 1005.37 1005.92 1006.56 1006.76 1007.86 1008.52 1008.31 1009.08 1008.82 1009.31 1009.95 1009.87 1010.27 1010.10 1010.64 1010.92 1011.01 1011.19 1011.31 1011.41 1011.63 1011.69 1011.92 1011.86 1012.13 1012.40 1012.49 1011.97 1011.37 1011.14
1003.77 1003.31 1002.84 1002.43 1002.06 1001.82 1001.36 1000.26 999.72 999.95 1000.13 1000.41 1000.31 1000.16 1000.53 1000.72 1001.16 1002.17 1003.10 1004.91 1005.76 1005.85 1007.07 1007.14 1008.30 1008.65 1008.93 1009.11 1009.79 1010.27 1010.49 1010.74 1011.00 1011.05 1011.03 1011.21 1011.45 1011.59 1011.74 1011.77 1011.95 1012.02 1012.29 1011.72 1011.86 1011.96 1011.75 1011.19 1010.86
1003.02 1002.94 1002.99 1002.60 1002.16 1000.67 1000.74 999.21 998.86 999.13 999.57 999.89 999.91 1000.00 1000.25 1000.49 1001.34 1002.12 1003.12 1004.60 1005.41 1006.21 1006.99 1008.28 1008.38 1008.91 1008.93 1009.14 1009.39 1009.62 1009.56 1009.91 1010.11 1010.62 1010.63 1011.15 1011.46 1011.56 1011.56 1011.82 1011.72 1011.92 1011.76 1011.61 1011.57 1011.52 1011.52 1011.32 1010.69
1002.70 1002.52 1002.45 1002.28 1001.74 1001.20 1000.33 1000.16 998.18 998.95 998.82 998.98 999.79 999.74 999.76 1000.18 1001.01 1002.70 1003.82 1004.77 1005.61 1006.57 1007.50 1008.33 1008.61 1009.32 1009.63 1009.75 1009.28 1009.36 1009.44 1009.92 1010.24 1010.43 1011.19 1011.58 1011.72 1011.73 1011.75 1011.75 1011.93 1011.94 1011.88 1011.37 1011.36 1011.35 1011.11 1010.82 1010.52
1002.53 1002.65 1002.36 1001.98 1001.42 1000.44 999.91 999.48 997.42 997.75 998.47 998.96 999.69 1000.33 1000.61 1001.29 1001.99 1002.88 1004.55 1005.28 1006.14 1006.84 1007.85 1008.75 1009.53 1010.04 1010.19 1010.13 1010.51 1010.57 1010.79 1010.87 1010.81 1010.98 1010.98 1010.91 1011.12 1011.27 1011.46 1011.58 1011.71 1011.67 1011.58 1011.55 1011.22 1010.96 1010.66 1010.54 1010.08
1002.25 1002.10 1001.26 1001.16 1000.43 999.79 999.43 999.61 998.30 998.97 999.34 999.29 999.80 1000.53 1001.41 1002.08 1002.88 1003.71 1004.88 1005.47 1006.60 1007.27 1008.11 1009.02 1009.97 1010.22 1010.72 1011.16 1011.24 1011.56 1011.75 1011.56 1011.17 1011.62 1011.04 1011.28 1011.17 1010.90 1011.11 1011.50 1011.59 1011.32 1011.18 1010.99 1010.77 1010.55 1010.28 1009.99 1009.49
1001.23 1001.29 1000.18 999.48 999.14 998.85 999.86 999.36 998.42 999.31 1000.20 1000.52 1000.70 1001.06 1001.95 1002.73 1003.59 1004.29 1005.13 1005.99 1006.57 1007.60 1008.65 1009.38 1009.92 1010.31 1010.69 1010.88 1011.20 1011.22 1011.73 1011.45 1011.68 1011.67 1011.96 1011.55 1011.39 1011.09 1011.32 1011.47 1011.47 1011.30 1011.10 1010.90 1010.56 1010.28 1009.66 1009.16 1008.76
1000.21 1000.53 1000.48 999.91 999.89 999.40 998.76 999.16 999.63 999.99 1000.39 1000.71 1001.24 1001.93 1002.55 1003.30 1004.06 1004.99 1005.84 1006.56 1007.49 1008.50 1009.24 1009.69 1010.01 1010.35 1010.79 1011.08 1011.37 1011.74 1011.92 1012.23 1012.16 1012.29 1012.32 1011.75 1011.55 1011.52 1011.54 1011.44 1011.26 1011.32 1010.95 1010.57 1010.49 1010.08 1009.45 1009.07 1008.51
1000.13 1000.20 1000.66 1000.45 999.94 999.42 998.93 998.64 998.46 999.50 1000.10 1000.81 1001.50 1002.24 1003.21 1004.19 1005.30 1006.16 1006.86 1007.53 1008.18 1008.85 1009.66 1010.23 1010.62 1010.92 1011.22 1011.45 1011.56 1011.66 1012.08 1012.17 1012.13 1012.28 1012.31 1012.17 1012.12 1011.94 1011.67 1011.45 1011.03 1010.73 1010.23 1010.34 1010.20 1009.67 1009.08 1008.68 1008.09
1000.45 1000.22 1000.35 1000.29 1000.31 1000.09 999.53 999.42 998.91 999.33 1000.13 1000.82 1001.60 1002.60 1003.73 1004.58 1005.53 1006.50 1007.37 1008.33 1008.98 1009.65 1010.23 1010.85 1011.00 1011.19 1011.38 1011.57 1011.81 1012.02 1012.10 1012.32 1012.34 1012.17 1012.33 1011.87 1011.49 1011.40 1011.15 1010.73 1010.48 1010.08 1009.94 1009.81 1009.58 1009.05 1008.80 1008.28 1007.69
999.49 999.46 999.99 1000.15 1000.79 1000.70 1000.14 1000.15 1000.94 1000.94 1000.90 1001.42 1002.01 1003.09 1004.05 1004.79 1005.94 1006.91 1007.78 1008.50 1009.10 1009.65 1010.10 1010.51 1010.92 1011.10 1011.23 1011.49 1011.73 1011.91 1012.13 1012.14 1011.96 1011.63 1011.62 1011.14 1010.92 1010.86 1010.65 1010.10 1010.00 1009.43 1009.10 1009.19 1008.74 1008.42 1008.19 1007.67 1007.21
Wind_Speed
12 10 6 7 9 7 13 7 8 6 4 4 11 9 13 12 10 7 3 6 15 18 17 18 15 13 13 12 13 15 16 16 17 17 16 15 15 14 13 11 11 11 11 10 9 9 9 9 9
8 6 6 4 9 13 12 11 10 3 6 10 10 7 7 7 5 4 10 8 15 17 16 18 16 15 14 13 13 16 16 16 16 17 16 15 13 12 12 11 10 10 9 9 8 8 8 8 9
9 9 8 6 13 15 13 8 8 2 6 8 5 7 7 4 3 2 8 14 18 16 16 17 16 16 16 15 13 14 15 16 16 16 15 14 13 12 11 10 9 10 9 9 9 8 7 7 6
8 7 5 12 17 16 17 2 2 4 5 3 7 12 3 4 2 2 14 16 17 16 16 18 15 15 15 16 16 15 14 15 16 16 14 13 12 12 11 10 8 8 7 7 7 7 6 6 5
8 7 13 16 23 18 7 13 10 12 9 9 6 5 3 5 5 9 13 16 17 17 16 18 15 15 15 16 16 16 16 14 14 14 13 12 12 12 10 9 9 8 8 7 7 6 5 5 4
9 9 13 18 21 21 14 13 11 8 12 11 9 7 1 5 5 11 12 14 16 16 16 17 15 14 13 14 15 15 14 15 14 14 13 12 12 12 11 10 9 8 7 7 7 6 5 4 4
16 12 17 20 19 19 14 13 16 13 12 12 5 9 6 7 7 11 10 12 15 16 16 16 17 15 13 12 12 13 13 12 12 12 11 11 11 10 9 8 7 7 6 5 5 5 6 6 6
11 11 22 20 17 17 9 12 20 14 15 8 6 6 3 5 9 11 10 11 14 15 15 17 16 16 15 14 10 10 11 11 10 10 10 10 10 8 8 7 7 6 6 6 5 5 6 6 6
11 11 15 20 16 13 7 12 11 6 10 12 2 8 7 8 12 11 10 12 13 13 13 14 15 15 14 15 13 9 9 8 8 9 8 9 9 11 12 9 10 7 6 6 6 6 6 6 9
15 14 17 13 9 8 11 14 13 10 12 12 10 2 3 10 13 13 11 12 14 15 15 13 13 14 13 10 14 13 12 10 10 10 11 9 8 8 6 6 8 6 7 8 9 8 8 9 9
13 17 12 7 12 13 16 17 10 18 19 14 9 1 0 10 12 13 12 13 15 14 12 13 12 11 12 10 9 8 8 8 8 11 10 9 6 6 7 5 7 8 12 8 11 10 9 10 6
11 14 13 11 9 11 16 15 17 17 19 17 6 5 9 6 10 9 9 9 13 13 14 13 13 12 12 8 8 9 8 8 8 10 11 8 6 7 6 6 6 6 6 6 7 6 6 8 9
15 15 11 14 15 15 17 19 18 17 15 18 17 15 11 9 4 7 5 6 7 10 12 13 14 13 12 11 9 8 8 8 9 8 10 8 8 6 7 7 6 6 6 6 7 7 6 8 9
8 13 13 13 16 17 19 21 21 19 13 21 20 21 18 15 7 5 3 4 9 7 9 11 14 13 13 12 11 8 7 8 7 7 8 11 8 6 7 7 8 7 7 7 7 7 7 8 9
8 12 15 16 17 17 14 20 25 20 16 18 22 19 18 18 15 10 3 2 3 6 8 11 12 13 12 12 10 9 8 9 8 8 8 10 9 8 8 7 7 7 7 7 8 9 9 9 11
12 9 13 8 14 13 14 17 18 21 21 21 24 19 18 14 20 12 5 4 2 2 8 10 10 12 12 10 9 8 7 7 8 7 8 10 10 9 8 8 7 6 6 7 7 8 8 9 9
10 12 12 5 10 8 14 16 17 16 19 21 21 20 19 15 18 16 9 3 3 2 6 8 9 10 11 11 9 9 9 8 6 5 6 7 9 9 7 6 5 5 7 7 7 7 8 8 10
12 13 9 9 5 6 15 21 19 11 18 20 20 21 18 16 16 17 12 7 4 1 1 2 6 8 10 5 6 7 8 7 5 5 5 6 6 8 8 7 4 5 5 6 5 7 9 8 10
4 6 10 10 6 10 14 17 19 13 13 17 19 18 19 21 18 21 14 10 7 6 5 1 6 10 8 10 9 6 8 7 7 7 7 7 7 7 7 8 7 7 7 7 7 8 10 9 10
11 12 14 12 7 5 11 14 13 10 14 14 18 18 17 17 15 22 12 8 11 10 9 7 10 10 9 6 6 5 4 2 3 3 4 5 6 6 6 5 4 4 6 6 8 8 9 10 9
14 15 14 13 8 13 12 16 13 11 12 17 19 18 15 18 16 16 9 13 13 8 6 7 8 9 9 10 8 7 6 5 4 4 3 4 4 5 4 5 6 5 6 8 6 8 10 10 10
15 14 15 16 13 10 7 11 11 9 13 17 19 17 17 19 16 14 11 11 8 7 8 9 10 10 11 13 10 9 7 7 4 6 4 4 5 5 6 6 7 7 8 8 8 9 9 9 11
13 12 14 17 16 14 14 10 5 5 8 17 12 15 15 15 18 15 12 9 8 12 13 12 11 10 8 6 5 7 5 5 3 2 1 3 4 5 6 6 8 9 9 9 9 11 10 10 11
10 8 10 13 13 13 16 8 8 5 1 6 9 10 6 3 3 8 12 13 13 14 13 12 12 9 8 8 7 6 5 2 1 1 3 4 5 5 7 8 8 9 10 12 12 12 13 12 12
13 11 10 12 14 12 4 9 10 7 5 3 10 9 7 6 9 12 15 17 16 14 13 11 10 10 10 8 9 6 5 4 2 5 5 6 7 7 8 9 9 10 11 12 13 13 15 14 14
17 15 12 14 13 13 11 8 6 7 0 1 4 10 12 11 13 15 15 15 16 13 11 11 10 9 8 7 7 7 7 5 5 4 6 7 8 9 11 11 12 14 14 14 13 13 14 15 15
12 13 16 17 4 8 9 8 4 6 5 8 11 13 14 14 14 14 12 11 12 12 10 9 8 8 7 7 6 5 5 6 7 8 8 8 10 10 13 13 14 15 15 15 16 14 15 16 16
16 12 10 10 14 15 15 10 6 12 10 11 13 15 15 14 13 12 11 11 10 10 9 8 7 6 5 5 5 5 7 7 8 9 11 12 12 14 14 14 14 15 14 14 14 14 16 17 15
9 13 10 7 10 9 12 6 6 3 7 12 13 15 15 14 13 11 11 10 9 8 8 6 3 1 3 4 6 7 8 9 10 10 12 12 12 13 14 14 13 13 13 14 14 15 17 19 18
8 18 17 10 13 10 11 4 7 2 6 10 13 13 13 11 11 11 11 10 8 6 5 3 4 6 6 7 8 9 10 11 12 11 13 12 13 13 13 13 14 14 14 14 15 16 16 18 19
Wind_Direction
266 254 273 247 244 230 252 234 280 241 219 26 314 301 312 313 308 13 84 116 135 145 147 158 138 137 139 145 145 141 139 143 146 150 154 157 158 153 142 135 131 129 127 129 134 138 140 139 138
236 232 231 264 248 233 236 218 233 248 338 310 302 298 264 295 26 80 140 155 156 143 152 155 142 141 138 140 141 137 141 144 147 151 153 156 154 145 135 133 133 130 134 139 144 149 149 149 151
240 234 249 226 235 241 246 147 255 264 290 317 288 326 306 0 88 53 92 155 150 153 158 144 149 144 141 138 135 136 141 145 149 150 153 154 149 139 135 136 138 142 150 153 160 161 157 157 159
192 192 234 243 235 231 252 153 177 279 285 301 312 293 156 44 20 90 141 154 151 155 161 138 150 146 144 142 141 141 145 149 149 150 152 151 145 139 139 141 140 150 155 162 168 169 169 176 181
216 225 235 225 241 241 218 265 279 281 288 304 331 274 272 76 69 127 147 159 162 160 159 158 154 152 153 150 150 149 151 152 151 150 152 149 144 142 144 146 151 160 166 173 179 179 186 193 200
201 239 232 232 232 233 203 244 250 254 283 286 271 273 243 104 136 147 154 169 168 162 158 156 156 156 157 155 154 153 155 155 154 154 155 152 151 152 154 158 164 169 173 180 188 191 204 215 226
239 213 235 243 242 231 206 238 248 260 263 266 322 269 76 161 123 154 158 171 170 165 165 161 169 164 158 160 161 156 156 156 155 156 155 154 155 157 159 163 165 170 175 185 195 202 219 228 238
234 252 244 239 243 245 239 239 248 249 255 284 265 259 204 110 153 153 161 170 175 172 173 168 170 172 177 169 162 159 158 156 154 156 154 156 156 162 168 166 178 187 193 201 210 219 235 248 256
235 236 237 237 226 246 243 227 250 259 256 251 293 287 351 138 154 156 165 176 181 178 176 176 170 174 184 171 161 155 155 144 142 151 148 159 196 182 172 197 144 190 208 219 227 234 239 250 244
212 227 240 254 282 249 251 234 242 230 237 235 233 215 266 168 175 165 176 183 185 184 178 180 175 180 183 175 158 183 176 185 188 186 175 202 199 192 221 172 173 206 219 228 229 232 236 237 253
217 247 235 239 243 259 259 256 247 254 246 246 249 147 220 207 199 183 183 190 188 188 185 189 172 186 188 186 173 181 180 186 190 193 187 205 188 193 207 212 203 221 205 238 203 214 226 239 260
240 227 250 242 247 245 251 261 254 239 259 247 207 279 295 223 218 199 194 195 184 190 190 188 179 189 199 187 188 181 190 190 197 195 194 199 207 195 226 214 218 216 232 235 242 254 250 265 257
231 247 228 247 255 254 262 259 261 253 258 263 265 272 271 254 222 210 254 238 210 201 196 192 187 188 189 202 185 198 203 193 205 193 195 213 215 210 216 228 237 240 236 233 243 254 260 265 258
185 240 242 233 240 245 252 259 255 245 238 256 254 256 258 249 204 140 138 199 240 235 203 203 191 193 192 198 196 191 204 192 213 205 206 211 223 217 234 226 233 240 242 252 259 257 269 267 270
223 238 227 227 233 235 243 253 258 257 245 252 252 248 251 253 235 199 126 90 175 229 229 201 198 195 198 199 198 200 196 214 204 211 215 218 211 214 250 244 244 246 242 249 254 257 250 254 252
220 229 243 212 203 218 215 258 245 239 229 231 246 233 242 247 236 201 140 119 109 284 199 197 197 187 192 197 196 206 210 213 217 209 213 213 222 225 205 236 240 239 242 242 248 256 260 259 265
200 243 208 214 193 223 202 258 257 238 230 234 244 230 232 226 234 223 198 128 132 86 203 196 194 190 189 197 194 203 201 222 214 221 228 213 222 222 228 241 255 234 246 248 263 281 278 277 274
198 214 216 241 156 223 223 248 270 233 228 229 233 224 222 239 230 251 224 146 154 136 5 221 182 160 189 181 209 201 199 211 224 230 225 212 221 219 215 235 254 260 239 251 260 254 263 262 278
241 237 256 259 270 255 266 258 266 247 231 230 226 204 219 226 207 238 252 216 160 136 83 300 191 173 179 165 205 193 209 191 189 213 214 217 211 213 196 225 218 226 248 273 290 269 251 259 274
227 241 250 258 265 289 281 271 266 239 225 225 213 215 204 221 215 211 160 159 207 163 147 179 216 176 189 168 153 197 157 243 171 178 170 183 194 207 223 261 268 265 285 251 263 269 279 273 271
229 245 252 261 290 282 266 257 239 221 211 210 227 229 218 239 227 204 199 196 215 162 172 160 185 174 167 169 152 134 130 134 161 152 170 177 198 213 233 237 259 277 262 274 260 258 270 285 287
236 232 248 267 264 273 194 279 185 189 211 218 217 212 225 233 206 225 195 200 183 168 161 172 160 159 157 170 154 157 163 168 155 183 173 189 219 240 248 255 267 256 277 293 266 252 261 271 274
251 263 256 249 249 259 225 245 129 172 218 210 220 230 223 212 208 184 208 193 174 158 151 134 115 114 98 77 105 165 165 134 147 140 148 257 244 251 257 267 271 270 262 270 269 268 260 266 271
251 227 238 245 244 235 240 242 222 163 283 173 191 200 206 207 183 157 148 150 148 135 130 123 115 100 86 87 81 85 106 108 236 196 268 262 275 268 261 271 274 274 275 269 269 267 262 258 268
209 230 217 212 219 238 194 214 278 112 121 69 150 141 157 150 146 144 153 139 137 131 125 127 120 107 102 97 93 76 64 58 12 323 308 310 283 287 292 299 288 285 284 281 279 273 266 264 260
206 222 241 214 220 218 153 220 231 112 35 98 113 129 136 148 145 148 137 138 127 122 124 120 116 99 86 75 57 44 23 353 316 301 316 300 298 296 302 292 287 285 283 279 280 275 268 264 256
200 219 249 275 318 275 180 192 188 159 156 154 145 145 143 143 140 133 128 121 119 112 104 99 92 82 61 50 27 4 345 325 316 302 292 289 291 282 276 285 288 282 279 278 279 272 272 269 266
253 226 204 229 246 227 240 220 270 177 178 161 159 154 147 131 131 131 124 113 101 96 89 79 69 55 31 4 345 331 317 301 303 292 282 282 278 276 278 279 278 278 281 278 275 274 270 268 265
182 210 235 258 224 245 254 229 56 41 166 172 163 154 150 154 141 133 124 121 121 120 121 120 109 44 337 319 316 303 298 292 286 282 277 278 285 280 278 279 279 279 275 276 276 278 280 276 274
252 217 199 216 210 238 254 257 100 89 160 172 156 155 158 146 138 134 133 134 129 122 106 65 2 327 328 316 308 300 295 291 286 285 285 290 288 283 278 281 277 277 280 279 280 279 280 282 279